Skip Page Navigation
NASA JPL Caltech
NASA Logo - Jet Propulsion Laboratory + View the NASA Portal
+ Center for Near-Earth Object Studies
JPL Home Earth Solar System Stars & Galaxies Technology
JPL Solar System Dynamics
BODIES ORBITS EPHEMERIDES TOOLS PHYSICAL DATA DISCOVERY FAQ SITE MAP

Significant website upgrade scheduled for September 27. More details available here.

JPL Small-Body Database Browser
Search: [ help ]  
52593 (1997 QF2)
Classification: Main-belt Asteroid          SPK-ID: 2052593
Ephemeris | Orbit Diagram | Orbital Elements | Mission Design | Physical Parameters | Discovery Circumstances | Close-Approach Data ]

[ hide orbit diagram ]

For accurate long-term ephemerides, please instead use our Horizons system.This orbit viewer was implemented using two-body methods, and hence should not be used for determining accurate long-term trajectories (over several years or decades) or planetary encounter circumstances.


Orbital Elements at Epoch 2459396.5 (2021-Jul-01.0) TDB
Reference: JPL 35 (heliocentric ecliptic J2000)
 Element Value Uncertainty (1-sigma)   Units 
e .1418659904665427 4.5413e-08  
a 3.065561122812905 1.9849e-08 au
q 2.630662257789325 1.3606e-07 au
i 12.8735625960256 4.637e-06 deg
node 5.00158872909424 1.6246e-05 deg
peri 10.09777582706264 2.1147e-05 deg
M 135.0092659272623 1.3038e-05 deg
tp 2458661.267880197455
(2019-Jun-26.76788020)
7.0648e-05 TDB
period 1960.484425354311
5.37
1.904e-05
5.213e-08
d
yr
n .1836280846428752 1.7834e-09 deg/d
Q 3.500459987836484 2.2664e-08 au
  Orbit Determination Parameters
   # obs. used (total)      1364  
   data-arc span      8661 days (23.71 yr)  
   first obs. used      1997-08-27  
   last obs. used      2021-05-14  
   planetary ephem.      DE441  
   SB-pert. ephem.      SB441-N16  
   condition code      0  
   norm. resid. RMS      .46737  
   source      ORB  
   producer      Otto Matic  
   solution date      2021-Jul-08 21:54:05  

Additional Information
 Earth MOID = 1.63137 au 
 Jupiter MOID = 1.97298 au 
 T_jup = 3.179 
[ show covariance matrix ]

Ephemeris | Orbit Diagram | Orbital Elements | Mission Design | Physical Parameters | Discovery Circumstances | Close-Approach Data ]

Physical Parameter Table
Parameter Symbol Value Units Sigma Reference Notes
absolute magnitude H 13.86   n/a MPCxxxxx  
diameter diameter 5.654 km 0.327 urn:nasa:pds:neowise_diameters_albedos::2.0[mainbelt] (http://adsabs.harvard.edu/abs/2011ApJ...741...68M)  
geometric albedo albedo 0.290   0.059 urn:nasa:pds:neowise_diameters_albedos::2.0[mainbelt] (http://adsabs.harvard.edu/abs/2011ApJ...741...68M)  

52593 (1997 QF2)          Discovered 1997-Aug-27 by Shimizu, Y., Urata, T. at Nachi-Katsuura
Reference: 20030216/Numbers.arcLast Updated: 2004-04-19

[ hide close-approach data ]
Close-Approach Data   ...sorted by Date/Time (TDB)
Date/Time (TDB) Time Uncertainty
(days_HH:MM)
Body Nominal Distance (au) Minimum Distance (au) Maximum Distance (au) V-relative (km/s) V-infinity (km/s) JD (TDB) Time Uncertainty (minutes) Semi-major axis (km) Semi-minor axis (km) range-LOV angle (deg) N-sigma BP Orbit Ref. Reference Modified
1957-Oct-10 19:53 00:02 Jupiter 1.972265488716 1.97226495985124 1.9722660175811 3.83333622337409 3.71961463582083 2436122.328440378 1.56156977857423 236.272519738274 24.6573020381279 88.8643734133881 3294538.85077646 T 35 CATAB v2.0g-lin.ifort 2021-Jul-08 21:54:08 2021-Jul-08 21:54
2016-Jun-14 12:05 < 00:01 Jupiter 1.97246917290272 1.97246870091412 1.97246964489142 3.92624411199299 3.81530443884584 2457554.003285322 0.19185990632108 208.40876696168 20.824293588189 -88.4897352987577 3483350.30595605 T 35 CATAB v2.0g-lin.ifort 2021-Jul-08 21:54:08 2021-Jul-08 21:54
2124-Jan-02 20:24 00:03 Jupiter 1.98602074765633 1.98602022873188 1.98602126658123 3.74824496143952 3.63267886506115 2496836.349684725 2.90751789979541 280.90612284973 25.8399514009285 -88.5195990774117 3186653.13208123 T 35 CATAB v2.0g-lin.ifort 2021-Jul-08 21:54:08 2021-Jul-08 21:54
2182-Sep-05 07:48 00:04 Jupiter 1.97136675049056 1.97136614313958 1.97136735785946 3.92243491358321 3.81132135938412 2518266.824985411 4.40312754934163 531.301928592263 23.0783080866195 88.5676491246286 3565173.14308672 T 35 CATAB v2.0g-lin.ifort 2021-Jul-08 21:54:08 2021-Jul-08 21:54
Ephemeris | Orbit Diagram | Orbital Elements | Mission Design | Physical Parameters | Discovery Circumstances | Close-Approach Data ]
ABOUT SSD CREDITS/AWARDS PRIVACY/COPYRIGHT GLOSSARY LINKS
FirstGov 2021-Sep-18 01:48 UT
(server date/time)  
NASA Home Page
Site Manager:   Ryan S. Park
Webmaster  Alan B. Chamberlin